Presure
337 334 376 356 208 215 198 196 181 182 179 163 183 174 176 171 172 175 161 148 173 147 155 154 159 153 158 103 155 186 163 124 104 137 107 145 134 128
328 327 382 356 226 209 211 192 183 182 178 177 167 178 182 182 182 163 180 178 178 165 171 161 173 160 157 175 171 161 140 136 126 118 171 140 146 129
324 313 385 218 235 222 212 195 191 184 182 178 178 175 184 181 166 180 172 167 96 181 130 158 187 103 119 160 169 122 152 105 148 141 150 153 127 166
333 310 382 431 241 219 201 208 195 188 178 185 178 178 182 185 130 155 179 166 197 169 155 170 179 144 169 164 125 159 87 149 157 172 133 102 133 110
326 314 372 384 240 215 202 206 174 191 189 190 175 172 179 167 184 173 165 178 173 180 169 172 111 178 140 147 151 159 85 151 166 148 158 101 119 142
324 337 355 388 248 226 205 197 202 189 189 185 187 178 181 178 176 181 177 183 175 180 179 187 175 168 169 176 159 176 107 145 137 122 166 152 142 120
307 272 343 377 249 227 207 195 189 195 180 192 192 185 185 179 177 177 181 174 169 169 177 179 171 139 157 164 191 171 131 173 135 106 177 134 164 139
388 338 314 379 251 235 213 211 192 198 187 183 187 175 189 180 167 180 175 171 192 189 172 196 184 159 151 168 156 116 171 153 132 109 145 131 169 129
395 306 299 363 266 237 218 207 207 197 191 187 180 190 184 184 186 182 182 188 181 181 169 165 183 169 162 159 138 135 166 149 151 122 128 188 160 145
393 344 316 317 355 239 230 220 190 202 186 192 188 180 177 188 182 186 177 170 172 181 174 180 139 168 171 167 170 162 204 178 167 115 135 127 163 91
385 381 308 279 358 285 237 215 202 198 196 194 196 187 185 186 181 177 183 180 181 168 180 187 182 170 175 175 155 124 159 177 162 186 131 113 130 156
376 371 304 333 302 349 268 228 208 201 196 192 192 191 190 179 175 193 173 177 173 185 180 178 169 181 162 136 158 146 165 150 164 139 171 188 87 107
371 365 341 323 280 327 287 252 228 212 202 192 191 193 193 192 194 181 170 194 192 162 174 161 170 181 165 162 160 168 156 142 171 103 174 166 130 169
367 363 358 305 345 302 349 286 269 223 210 190 193 191 192 188 184 192 186 168 177 191 184 174 175 166 160 182 167 171 178 122 166 143 90 158 99 174
363 362 350 335 343 274 308 326 294 238 219 202 200 195 193 191 177 183 193 190 178 186 185 181 168 178 166 174 156 177 155 158 155 157 168 179 157 104
357 360 337 338 323 317 288 327 337 286 228 211 204 206 193 195 193 192 190 192 191 174 171 183 183 183 174 172 154 181 177 186 169 174 177 175 142 98
352 354 358 343 334 318 265 290 321 349 270 225 215 204 192 194 185 192 193 192 187 190 186 174 170 177 140 175 161 170 181 149 179 174 176 156 144 151
346 353 349 356 331 331 307 263 268 321 276 274 216 200 212 202 198 191 191 179 182 190 189 188 170 173 148 169 180 181 183 174 185 161 154 189 141 178
343 349 344 349 351 329 326 303 263 284 325 282 273 222 205 203 193 202 202 194 192 193 145 186 189 165 168 181 163 126 189 161 151 199 176 155 148 139
334 338 342 340 345 344 329 318 308 262 289 293 264 265 225 214 202 189 187 199 201 192 193 194 186 188 191 182 181 173 185 141 152 126 158 173 151 151
326 331 338 339 335 345 330 329 293 311 264 277 314 327 272 226 212 209 195 189 197 200 191 178 175 195 192 151 175 184 187 183 169 182 177 182 175 169
316 318 332 333 328 330 340 345 333 289 312 267 252 322 313 273 225 213 215 207 202 199 193 185 187 190 199 201 190 192 196 193 181 134 188 180 132 165
307 311 313 319 330 319 318 322 334 329 277 310 262 245 311 319 261 237 218 217 205 202 202 207 205 205 179 201 138 197 191 179 180 181 136 178 168 175
Wind_Speed
59 64 57 106 125 136 140 140 129 129 120 95 117 105 103 90 90 83 77 57 76 69 52 50 43 37 27 53 18 30 4 53 32 49 27 39 57 55
60 63 57 107 140 138 144 139 134 132 123 113 99 108 110 109 106 77 94 89 84 65 69 53 55 44 34 33 33 20 30 23 31 15 15 14 34 37
61 61 55 50 143 143 142 141 143 132 130 120 120 106 116 109 80 101 87 66 49 83 56 65 61 52 48 37 29 38 21 13 18 40 21 22 19 22
60 60 58 52 144 139 139 147 144 138 123 133 121 116 117 115 69 68 99 65 81 67 58 61 58 48 48 46 50 30 26 25 16 21 52 28 19 25
61 68 63 81 144 142 139 143 116 142 137 135 117 111 115 90 112 96 71 97 85 87 71 62 60 58 48 40 41 37 27 27 30 34 21 16 30 35
64 73 73 74 147 146 143 139 143 136 137 135 131 120 121 116 103 107 98 105 88 95 86 80 65 56 52 55 43 47 39 45 31 20 18 19 29 26
67 77 75 83 147 148 144 139 135 146 123 137 138 132 127 116 111 104 109 94 80 75 86 82 65 55 58 51 49 48 43 40 27 29 29 25 23 20
56 64 80 81 146 152 148 149 139 147 136 133 133 114 135 122 90 111 99 87 107 101 72 89 83 57 51 55 48 41 45 33 58 28 34 59 24 57
60 78 85 78 146 153 148 142 154 144 143 140 127 137 129 131 126 118 110 114 104 101 80 64 87 68 60 49 44 44 41 39 46 40 63 37 21 37
62 77 87 93 107 152 156 151 136 152 138 144 142 133 116 132 124 125 100 88 88 104 93 90 62 69 69 64 49 39 54 52 45 33 63 28 29 26
63 71 87 100 82 151 156 153 149 153 150 146 148 141 135 136 125 113 121 110 109 76 101 106 99 78 71 72 56 42 44 59 55 47 72 24 32 29
64 73 90 89 98 101 152 160 152 153 154 145 147 145 142 123 115 135 103 109 92 114 101 94 92 94 50 71 54 58 62 60 52 62 43 55 22 28
67 72 86 92 105 93 155 157 158 158 162 149 149 149 145 145 143 130 96 132 128 65 95 68 78 98 74 66 67 73 55 51 62 33 56 52 36 41
67 73 79 92 88 100 88 159 159 159 160 136 153 147 147 145 135 142 135 86 99 125 121 101 99 79 82 98 72 80 79 48 54 61 33 55 34 52
68 71 79 87 87 106 94 116 163 162 157 157 159 159 155 151 119 131 143 140 111 128 124 113 103 107 86 89 85 89 57 69 51 59 48 65 66 40
69 71 80 85 90 94 100 88 120 157 159 159 160 164 156 158 153 150 145 144 140 103 86 118 121 118 104 90 65 95 90 88 65 70 71 66 65 27
69 71 73 82 84 90 107 100 98 84 159 163 165 163 139 152 143 147 150 144 135 139 135 101 108 108 88 110 70 70 94 70 89 68 66 58 67 59
67 69 70 75 83 84 95 107 101 99 153 161 154 147 166 159 156 152 152 115 127 142 139 135 92 99 101 98 101 97 102 87 98 54 68 87 75 77
62 63 67 69 76 84 86 96 109 105 92 155 159 169 157 159 148 161 159 153 148 149 98 141 141 78 79 113 87 89 115 67 75 101 88 67 79 79
58 60 63 67 72 78 86 90 96 113 103 109 154 161 170 165 161 131 125 157 160 151 151 153 138 130 128 117 121 97 107 86 82 69 73 85 78 79
56 57 59 64 68 75 84 89 98 97 112 107 92 89 151 169 164 164 148 139 156 159 149 113 127 145 144 93 84 113 121 117 105 107 95 99 93 77
52 53 54 60 65 69 73 78 89 98 96 112 109 91 112 160 169 167 168 168 161 159 153 137 140 140 149 145 132 133 135 126 115 86 115 101 46 87
47 51 54 56 63 68 71 74 79 88 103 98 113 114 98 97 165 169 165 171 164 159 159 163 159 155 93 146 100 143 132 118 108 110 85 100 77 92
Wind_Direction
219 220 219 197 208 204 212 213 221 225 228 239 230 237 237 240 240 239 239 232 241 244 240 244 243 243 240 273 268 268 292 279 300 287 312 302 302 314
218 220 215 197 203 206 207 213 220 224 227 229 238 232 235 235 236 238 241 243 242 240 243 238 247 241 235 268 257 245 258 293 280 299 351 316 307 311
218 215 210 228 202 203 206 213 216 222 225 228 231 236 232 236 244 240 243 243 235 243 242 247 239 256 256 250 261 270 235 268 269 279 298 310 321 335
218 212 207 208 201 202 210 210 214 219 225 223 230 235 232 233 223 234 241 241 233 239 235 241 241 233 246 252 256 240 257 244 269 294 281 286 294 298
217 211 208 200 201 204 210 210 224 218 220 222 231 236 234 240 234 241 244 242 245 246 242 240 247 246 229 239 231 241 261 229 277 264 289 282 308 292
215 210 209 203 200 203 208 213 212 221 220 223 224 232 231 235 238 237 242 240 245 246 247 246 242 238 242 250 237 253 273 251 260 248 280 274 291 280
212 209 207 204 201 205 209 214 218 218 227 221 223 227 229 233 237 239 240 242 244 244 247 248 244 245 245 244 240 252 241 256 230 258 276 285 290 279
220 214 205 207 202 204 209 209 217 217 223 226 225 232 228 233 238 237 243 243 239 242 245 243 246 230 237 242 227 249 261 218 255 241 242 272 281 283
214 206 201 204 201 205 211 213 212 218 222 224 229 226 231 233 232 236 238 238 242 242 245 242 246 243 240 230 241 223 247 216 246 267 268 282 262 261
211 209 204 203 203 205 209 208 217 216 223 223 225 231 232 230 235 234 239 242 241 241 247 244 215 244 244 247 245 241 245 255 248 258 253 247 248 274
209 209 204 200 205 206 207 210 213 217 220 222 223 227 230 231 235 238 237 240 241 242 244 244 247 247 247 251 233 244 226 264 241 262 257 250 245 238
209 206 205 207 204 205 207 210 211 213 221 223 224 226 228 235 238 233 238 240 241 241 243 247 239 247 227 219 222 210 248 221 252 242 264 272 264 251
207 206 205 207 203 205 206 209 210 211 217 222 224 226 227 230 231 236 237 236 238 227 237 233 244 245 231 234 235 250 228 222 257 236 270 266 250 277
205 207 206 206 207 206 206 209 209 212 212 221 223 226 227 230 234 233 237 236 229 239 241 245 248 243 238 247 244 251 252 245 240 226 250 259 244 278
203 205 207 206 208 208 208 209 210 210 213 216 221 224 225 229 234 236 234 237 241 241 242 244 236 248 245 249 237 250 238 252 222 248 250 263 260 250
204 204 206 206 205 207 206 208 212 211 212 215 219 221 223 227 228 232 234 235 238 240 239 244 244 244 243 248 225 253 252 255 251 256 264 265 239 256
205 204 205 208 207 205 209 209 209 212 210 212 216 221 224 224 230 231 234 235 238 239 241 242 235 247 217 248 232 246 255 215 256 247 255 222 233 240
206 206 206 208 208 209 207 212 212 213 212 215 216 221 222 224 225 229 233 235 238 239 240 241 238 243 241 247 252 250 253 254 257 230 215 264 237 267
207 207 207 209 210 210 211 209 212 209 212 215 217 216 221 223 225 228 229 232 234 236 219 242 242 222 235 245 231 242 249 221 214 253 257 222 257 246
207 210 210 209 210 212 212 211 212 214 212 214 217 217 217 219 224 229 232 231 231 234 236 239 243 244 245 246 247 245 242 237 214 252 223 250 227 234
208 212 213 213 212 213 214 214 213 214 217 215 217 213 216 219 223 224 228 232 233 233 236 237 236 242 242 230 237 243 248 250 249 254 254 256 259 258
211 214 215 216 216 216 216 218 217 217 216 218 220 219 216 216 222 223 226 228 230 233 235 237 238 240 241 242 242 244 245 246 242 243 254 255 247 259
218 221 221 219 220 221 221 220 221 220 219 220 219 222 220 219 217 222 227 225 229 231 233 233 235 236 234 241 229 244 245 245 249 250 245 252 247 257